Preview of NWS' New Version of Forecast
This preview is not operational and should not be used for support decisions.

Regional Weather Roundup (RWR)

Issued by National Weather Service (NWS)

                            
000
ASUS44 KJAN 200710
RWRMS 

MISSISSIPPI HOURLY WEATHER ROUNDUP
NATIONAL WEATHER SERVICE JACKSON MS
100 AM CST WED FEB 20 2019

NOTE: "FAIR: INDICATES FEW OR NO CLOUDS BELOW 12,000 FEET WITH NO
SIGNIFICANT WEATHER AND/OR OBSTRUCTIONS TO VISIBILITY.

MSZ001>002-007>008-010>013-018>021-025>028-034>036-200800-
NORTHWEST MISSISSIPPI
  
CITY           SKY/WX    TMP DP  RH WIND       PRES   REMARKS
BATESVILLE     CLOUDY    50  48  93 SE14G21   29.80F                  
CLARKSDALE       N/A     50  50 100 CALM      29.81F                  
CLEVELAND      TSTM      52  52 100 SE17      29.77F                  
GREENWOOD      CLOUDY    55  52  89 SE12G23   29.82F                  
GREENVILLE     TSTM      51  50  96 W7        29.79F VSB 3/4          
OLIVE BRANCH   CLOUDY    45 N/A N/A S8        29.81F FOG              
OXFORD         CLOUDY    46  46 100 SE20G30   29.83F                  
TUNICA         LGT RAIN  43  41  93 NW12      29.86R                  
WINONA         CLOUDY    51  51 100 SE9G21    29.85F                  
$$

MSZ003>006-009-014>017-022>024-029>033-037>039-200800-
NORTHEAST MISSISSIPPI
  
CITY           SKY/WX    TMP DP  RH WIND       PRES   REMARKS
ABERDEEN       CLOUDY    48  48 100 SE12      29.97F FOG              
COLUMBUS AFB   CLOUDY    48  48 100 SE13      29.96F FOG              
CORINTH        CLOUDY    48  46  93 SE18G25   29.88F                  
GOLDN TRIANGLE   N/A    N/A N/A N/A MISG        N/A                   
STARKVILLE     CLOUDY    46  46 100 SE13G18   29.96F                  
TUPELO         CLOUDY    48  45  89 SE21G28   29.90F                  
$$

MSZ040-058-200800-
CENTRAL MISSISSIPPI
  
CITY           SKY/WX    TMP DP  RH WIND       PRES   REMARKS
JACKSON INTL   CLOUDY    56  55  97 SE18G28   29.86F FOG              
JACKSON HAWKNS CLOUDY    56  56 100 SE14      29.86F FOG              
MADISON        CLOUDY    55  55 100 SE6       29.85F                  
MERIDIAN KEY   LGT RAIN  57  53  86 SE6       29.97S                  
MERIDIAN NAS   CLOUDY    53  51  93 SE9       29.98F                  
RAYMOND          N/A     57  57 100 SE9G17    29.84F                  
VICKSBURG VKS  CLOUDY    57  57 100 SE12G18   29.82F                  
$$

MSZ059>079-200800-
SOUTH MISSISSIPPI
  
CITY           SKY/WX    TMP DP  RH WIND       PRES   REMARKS
HATTIESBURG    LGT RAIN  54  54 100 CALM      29.94S VSB 1/2          
LAUREL         CLOUDY    59  59 100 SE5       29.94S VSB 1/2          
MCCOMB         FOG       59  57  93 SE10      29.87F VSB 1/2          
NATCHEZ        CLOUDY    63  62  97 SE15      29.83F FOG              
PINE BELT      LGT RAIN  58  57  97 SE7       29.94F VSB 1/2          
$$

MSZ080>082-200800-
COASTAL MISSISSIPPI
  
CITY           SKY/WX    TMP DP  RH WIND       PRES   REMARKS
BILOXI         CLOUDY    70  70 100 SE14      29.95S FOG              
PASCAGOULA     CLOUDY    70  68  93 SE13G24   29.97S FOG              
GULFPORT       CLOUDY    68  67  96 SE17      29.94S FOG              
$$

LAZ007>009-015>016-023>026-200800-
NORTHEAST LOUISIANA
  
CITY           SKY/WX    TMP DP  RH WIND       PRES   REMARKS
BASTROP        TSTM      47  47  97 NW7       29.83R                  
TALLULAH/VBURG CLOUDY    57  55  93 SE17      29.81F                  
VIDALIA        CLOUDY    63  63  97 SE15      29.81S                  
$$